Location: Newark
(37.9128°N, 122.4756°W)
Time: 01:55:45
(UTC+00:00)

ISS - Pass Details

Date: 24 November 2019
Orbit: 411 x 421 km, 51.6° (Epoch: 10 December)

Event Time Altitude Azimuth Distance (km) Brightness Sun altitude
Rises 01:52:31 0° 236° (SW) 2,341 1.6 -11.7°
Reaches altitude 10° 01:54:37 10° 239° (WSW) 1,484 0.4 -12.1°
Maximum altitude 01:57:55 65° 322° (NW) 460 -3.5 -12.7°
Enters shadow 02:00:08 19° 41° (NE) 1,051 -2.2 -13.1°
